Time,TemperatureF,DewpointF,PressureIn,WindDirection,WindDirectionDegrees,WindSpeedMPH,WindSpeedGustMPH,Humidity,HourlyPrecipIn,Conditions,Clouds,dailyrainin,SoftwareType,DateUTC
2013-11-15 00:02:00,39.6,23.0,29.87,SSW,206,0.0,0.0,51,0.00,,CLR,0.00,VWS V14.01,2013-11-15 05:02:00,
2013-11-15 00:07:00,39.6,23.0,29.87,South,191,0.0,0.0,51,0.00,,CLR,0.00,VWS V14.01,2013-11-15 05:07:00,
2013-11-15 00:12:00,39.5,22.9,29.87,South,186,0.0,0.0,51,0.00,,CLR,0.00,VWS V14.01,2013-11-15 05:12:00,
2013-11-15 00:22:00,39.8,23.2,29.86,South,171,0.0,0.0,51,0.00,,CLR,0.00,VWS V14.01,2013-11-15 05:22:00,
2013-11-15 00:27:00,40.1,23.0,29.86,South,186,0.0,0.0,50,0.00,,CLR,0.00,VWS V14.01,2013-11-15 05:27:00,
2013-11-15 00:32:00,40.2,22.6,29.86,SSW,206,0.0,0.0,49,0.00,,CLR,0.00,VWS V14.01,2013-11-15 05:32:00,
2013-11-15 00:37:00,40.3,22.7,29.86,SSW,208,0.0,0.0,49,0.00,,CLR,0.00,VWS V14.01,2013-11-15 05:37:00,
2013-11-15 00:42:00,40.5,22.9,29.86,SSW,209,0.0,0.0,49,0.00,,CLR,0.00,VWS V14.01,2013-11-15 05:42:00,
2013-11-15 00:47:00,40.8,22.6,29.87,SW,215,0.0,0.0,48,0.00,,CLR,0.00,VWS V14.01,2013-11-15 05:47:00,
2013-11-15 00:52:00,40.9,22.7,29.87,South,179,0.0,0.0,48,0.00,,CLR,0.00,VWS V14.01,2013-11-15 05:52:00,
2013-11-15 00:57:00,41.1,22.4,29.87,SW,217,0.0,0.0,47,0.00,,CLR,0.00,VWS V14.01,2013-11-15 05:57:00,
2013-11-15 01:07:00,41.2,22.0,29.87,SW,216,0.0,0.0,46,0.00,,CLR,0.00,VWS V14.01,2013-11-15 06:07:00,
2013-11-15 01:12:00,41.5,22.3,29.87,SSW,209,0.0,0.0,46,0.00,,CLR,0.00,VWS V14.01,2013-11-15 06:12:00,
2013-11-15 01:17:00,41.3,22.1,29.86,SW,223,0.0,0.0,46,0.00,,CLR,0.00,VWS V14.01,2013-11-15 06:17:00,
2013-11-15 01:22:00,41.3,22.1,29.86,SSW,195,0.0,0.0,46,0.00,,CLR,0.00,VWS V14.01,2013-11-15 06:22:00,
2013-11-15 01:27:00,41.5,21.8,29.86,SW,216,0.0,0.0,45,0.00,,CLR,0.00,VWS V14.01,2013-11-15 06:27:00,
2013-11-15 01:32:00,41.6,21.9,29.86,SSW,209,0.0,0.0,45,0.00,,CLR,0.00,VWS V14.01,2013-11-15 06:32:00,
2013-11-15 01:37:00,41.6,21.9,29.86,SSW,209,0.0,0.0,45,0.00,,CLR,0.00,VWS V14.01,2013-11-15 06:37:00,
2013-11-15 01:47:00,41.5,21.8,29.86,SSW,200,0.0,0.0,45,0.00,,CLR,0.00,VWS V14.01,2013-11-15 06:47:00,
2013-11-15 01:52:00,41.5,21.8,29.86,SSW,205,0.0,0.0,45,0.00,,CLR,0.00,VWS V14.01,2013-11-15 06:52:00,
2013-11-15 01:57:00,41.3,22.1,29.86,SSW,196,0.0,0.0,46,0.00,,CLR,0.00,VWS V14.01,2013-11-15 06:57:00,
2013-11-15 02:07:00,41.3,22.1,29.85,South,185,0.0,0.0,46,0.00,,CLR,0.00,VWS V14.01,2013-11-15 07:07:00,
2013-11-15 02:12:00,41.3,22.1,29.85,SSW,195,0.0,0.0,46,0.00,,CLR,0.00,VWS V14.01,2013-11-15 07:12:00,
2013-11-15 02:17:00,41.2,22.0,29.85,SSW,205,0.0,0.0,46,0.00,,CLR,0.00,VWS V14.01,2013-11-15 07:17:00,
2013-11-15 02:22:00,41.2,22.0,29.85,SW,216,0.0,0.0,46,0.00,,CLR,0.00,VWS V14.01,2013-11-15 07:22:00,
2013-11-15 02:27:00,41.3,22.1,29.85,SSW,209,0.0,0.0,46,0.00,,CLR,0.00,VWS V14.01,2013-11-15 07:27:00,
2013-11-15 02:32:00,41.3,22.1,29.86,SSW,195,0.0,0.0,46,0.00,,CLR,0.00,VWS V14.01,2013-11-15 07:32:00,
2013-11-15 02:42:00,41.2,22.5,29.86,SSW,193,0.0,0.0,47,0.00,,CLR,0.00,VWS V14.01,2013-11-15 07:42:00,
2013-11-15 02:47:00,41.1,22.4,29.86,South,182,0.0,0.0,47,0.00,,CLR,0.00,VWS V14.01,2013-11-15 07:47:00,
2013-11-15 02:52:00,41.1,22.9,29.86,SSW,212,0.0,0.0,48,0.00,,CLR,0.00,VWS V14.01,2013-11-15 07:52:00,
2013-11-15 02:57:00,41.1,22.9,29.86,SSW,198,0.0,0.0,48,0.00,,CLR,0.00,VWS V14.01,2013-11-15 07:57:00,
2013-11-15 03:02:00,40.9,22.7,29.86,South,182,0.0,0.0,48,0.00,,CLR,0.00,VWS V14.01,2013-11-15 08:02:00,
2013-11-15 03:07:00,40.9,22.7,29.86,South,176,0.0,0.0,48,0.00,,CLR,0.00,VWS V14.01,2013-11-15 08:07:00,
2013-11-15 03:12:00,40.6,23.0,29.86,South,174,0.0,0.0,49,0.00,,CLR,0.00,VWS V14.01,2013-11-15 08:12:00,
2013-11-15 03:17:00,40.5,23.3,29.85,SSW,200,0.0,0.0,50,0.00,,CLR,0.00,VWS V14.01,2013-11-15 08:17:00,
2013-11-15 03:22:00,40.5,23.3,29.85,SSE,164,0.0,0.0,50,0.00,,CLR,0.00,VWS V14.01,2013-11-15 08:22:00,
2013-11-15 03:32:00,40.6,23.4,29.85,SSW,212,0.0,0.0,50,0.00,,CLR,0.00,VWS V14.01,2013-11-15 08:32:00,
2013-11-15 03:37:00,40.6,23.4,29.85,SSW,196,0.0,0.0,50,0.00,,CLR,0.00,VWS V14.01,2013-11-15 08:37:00,
2013-11-15 03:42:00,40.6,23.4,29.85,SSW,202,0.0,0.0,50,0.00,,CLR,0.00,VWS V14.01,2013-11-15 08:42:00,
2013-11-15 03:47:00,40.6,23.4,29.85,SSW,202,0.0,0.0,50,0.00,,CLR,0.00,VWS V14.01,2013-11-15 08:47:00,
2013-11-15 03:52:00,40.6,23.4,29.85,SSW,195,0.0,0.0,50,0.00,,CLR,0.00,VWS V14.01,2013-11-15 08:52:00,
2013-11-15 03:57:00,40.6,23.4,29.85,SSW,203,0.0,0.0,50,0.00,,CLR,0.00,VWS V14.01,2013-11-15 08:57:00,
2013-11-15 04:07:00,40.8,23.6,29.85,SSW,212,0.0,0.0,50,0.00,,CLR,0.00,VWS V14.01,2013-11-15 09:07:00,
2013-11-15 04:12:00,40.8,23.6,29.85,South,174,0.0,0.0,50,0.00,,CLR,0.00,VWS V14.01,2013-11-15 09:12:00,
2013-11-15 04:17:00,40.9,23.7,29.85,SSW,202,0.0,0.0,50,0.00,,CLR,0.00,VWS V14.01,2013-11-15 09:17:00,
2013-11-15 04:27:00,40.8,24.1,29.85,SSW,195,0.0,0.0,51,0.00,,CLR,0.00,VWS V14.01,2013-11-15 09:27:00,
2013-11-15 04:32:00,40.8,24.1,29.85,SSW,192,0.0,0.0,51,0.00,,CLR,0.00,VWS V14.01,2013-11-15 09:32:00,
2013-11-15 04:37:00,40.6,23.9,29.85,South,178,0.0,0.0,51,0.00,,CLR,0.00,VWS V14.01,2013-11-15 09:37:00,
2013-11-15 04:42:00,40.6,24.4,29.85,SSW,198,0.0,0.0,52,0.00,,CLR,0.00,VWS V14.01,2013-11-15 09:42:00,
2013-11-15 04:47:00,40.6,24.4,29.85,SSW,206,0.0,0.0,52,0.00,,CLR,0.00,VWS V14.01,2013-11-15 09:47:00,
2013-11-15 04:52:00,40.5,24.3,29.85,South,188,0.0,0.0,52,0.00,,CLR,0.00,VWS V14.01,2013-11-15 09:52:00,
2013-11-15 04:57:00,40.5,24.3,29.85,South,191,0.0,0.0,52,0.00,,CLR,0.00,VWS V14.01,2013-11-15 09:57:00,
2013-11-15 05:02:00,40.5,24.3,29.85,SSW,208,0.0,0.0,52,0.00,,CLR,0.00,VWS V14.01,2013-11-15 10:02:00,
2013-11-15 05:07:00,40.5,24.3,29.85,SSW,195,0.0,0.0,52,0.00,,CLR,0.00,VWS V14.01,2013-11-15 10:07:00,
2013-11-15 05:12:00,40.5,24.3,29.85,SSW,205,0.0,0.0,52,0.00,,CLR,0.00,VWS V14.01,2013-11-15 10:12:00,
2013-11-15 05:22:00,40.5,24.3,29.85,SSW,199,0.0,0.0,52,0.00,,CLR,0.00,VWS V14.01,2013-11-15 10:22:00,
2013-11-15 05:27:00,40.6,23.9,29.85,South,184,0.0,0.0,51,0.00,,CLR,0.00,VWS V14.01,2013-11-15 10:27:00,
2013-11-15 05:37:00,41.1,23.4,29.85,SSW,208,0.0,0.0,49,0.00,,CLR,0.00,VWS V14.01,2013-11-15 10:37:00,
2013-11-15 05:42:00,41.2,23.0,29.85,SSW,206,0.0,0.0,48,0.00,,CLR,0.00,VWS V14.01,2013-11-15 10:42:00,
2013-11-15 05:47:00,41.2,23.0,29.85,SSW,205,0.0,0.0,48,0.00,,CLR,0.00,VWS V14.01,2013-11-15 10:47:00,
2013-11-15 05:52:00,41.1,23.4,29.85,SSW,195,0.0,0.0,49,0.00,,CLR,0.00,VWS V14.01,2013-11-15 10:52:00,
2013-11-15 06:02:00,40.9,23.2,29.85,SW,216,0.0,0.0,49,0.00,,CLR,0.00,VWS V14.01,2013-11-15 11:02:00,
2013-11-15 06:12:00,40.9,23.7,29.85,SSW,200,0.0,0.0,50,0.00,,CLR,0.00,VWS V14.01,2013-11-15 11:12:00,
2013-11-15 06:17:00,40.8,23.6,29.85,SSW,209,0.0,0.0,50,0.00,,CLR,0.00,VWS V14.01,2013-11-15 11:17:00,
2013-11-15 06:27:00,40.8,24.1,29.85,South,181,0.0,0.0,51,0.00,,CLR,0.00,VWS V14.01,2013-11-15 11:27:00,
2013-11-15 06:37:00,40.3,24.1,29.85,South,186,0.0,0.0,52,0.00,,CLR,0.00,VWS V14.01,2013-11-15 11:37:00,
2013-11-15 06:47:00,40.3,24.1,29.86,SSW,203,0.0,0.0,52,0.00,,CLR,0.00,VWS V14.01,2013-11-15 11:47:00,
2013-11-15 06:52:00,40.3,24.1,29.86,South,175,0.0,0.0,52,0.00,,CLR,0.00,VWS V14.01,2013-11-15 11:52:00,
2013-11-15 06:57:00,40.5,24.3,29.86,SSW,196,0.0,0.0,52,0.00,,CLR,0.00,VWS V14.01,2013-11-15 11:57:00,
2013-11-15 07:02:00,40.6,24.4,29.86,SSW,195,0.0,0.0,52,0.00,,CLR,0.00,VWS V14.01,2013-11-15 12:02:00,
2013-11-15 07:07:00,40.6,24.4,29.86,SSW,210,0.0,0.0,52,0.00,,CLR,0.00,VWS V14.01,2013-11-15 12:07:00,
2013-11-15 07:12:00,40.6,24.4,29.86,SSW,198,0.0,0.0,52,0.00,,CLR,0.00,VWS V14.01,2013-11-15 12:12:00,
2013-11-15 07:17:00,40.6,24.4,29.86,SSW,203,0.0,0.0,52,0.00,,CLR,0.00,VWS V14.01,2013-11-15 12:17:00,
2013-11-15 07:22:00,40.6,24.8,29.86,South,174,0.0,0.0,53,0.00,,CLR,0.00,VWS V14.01,2013-11-15 12:22:00,
2013-11-15 07:27:00,40.6,24.8,29.86,SW,217,0.0,0.0,53,0.00,,CLR,0.00,VWS V14.01,2013-11-15 12:27:00,
2013-11-15 07:32:00,40.5,24.7,29.86,SSW,202,0.0,0.0,53,0.00,,CLR,0.00,VWS V14.01,2013-11-15 12:32:00,
2013-11-15 07:42:00,40.6,24.8,29.86,South,186,0.0,0.0,53,0.00,,CLR,0.00,VWS V14.01,2013-11-15 12:42:00,
2013-11-15 07:52:00,40.6,24.8,29.86,South,184,0.0,0.0,53,0.00,,CLR,0.00,VWS V14.01,2013-11-15 12:52:00,
2013-11-15 08:02:00,40.8,24.5,29.86,South,169,0.0,0.0,52,0.00,,CLR,0.00,VWS V14.01,2013-11-15 13:02:00,
2013-11-15 08:07:00,40.8,24.5,29.86,SSW,198,0.0,0.0,52,0.00,,CLR,0.00,VWS V14.01,2013-11-15 13:07:00,
2013-11-15 08:12:00,40.8,25.0,29.86,SSW,198,0.0,0.0,53,0.00,,CLR,0.00,VWS V14.01,2013-11-15 13:12:00,
2013-11-15 08:17:00,40.8,25.0,29.88,South,189,0.0,0.0,53,0.00,,CLR,0.00,VWS V14.01,2013-11-15 13:17:00,
2013-11-15 08:22:00,40.9,25.1,29.88,South,188,0.0,0.0,53,0.00,,CLR,0.00,VWS V14.01,2013-11-15 13:22:00,
2013-11-15 08:27:00,40.9,25.1,29.88,SSW,199,0.0,0.0,53,0.00,,CLR,0.00,VWS V14.01,2013-11-15 13:27:00,
2013-11-15 08:37:00,40.9,25.1,29.88,SSW,203,0.0,0.0,53,0.00,,CLR,0.00,VWS V14.01,2013-11-15 13:37:00,
2013-11-15 08:47:00,41.1,25.7,29.88,SW,216,0.0,0.0,54,0.00,,CLR,0.00,VWS V14.01,2013-11-15 13:47:00,
2013-11-15 08:52:00,41.1,25.3,29.88,SSW,208,0.0,0.0,53,0.00,,CLR,0.00,VWS V14.01,2013-11-15 13:52:00,
2013-11-15 08:57:00,41.2,25.4,29.88,SSW,209,0.0,0.0,53,0.00,,CLR,0.00,VWS V14.01,2013-11-15 13:57:00,
2013-11-15 09:02:00,41.3,25.9,29.87,SSW,198,0.0,0.0,54,0.00,,CLR,0.00,VWS V14.01,2013-11-15 14:02:00,
2013-11-15 09:07:00,41.3,25.9,29.87,South,191,0.0,0.0,54,0.00,,CLR,0.00,VWS V14.01,2013-11-15 14:07:00,
2013-11-15 09:12:00,41.5,25.7,29.87,SSE,164,0.0,0.0,53,0.00,,CLR,0.00,VWS V14.01,2013-11-15 14:12:00,
2013-11-15 09:17:00,41.6,25.8,29.88,SSW,192,0.0,0.0,53,0.00,,CLR,0.00,VWS V14.01,2013-11-15 14:17:00,
2013-11-15 09:22:00,41.6,25.8,29.88,South,186,0.0,0.0,53,0.00,,CLR,0.00,VWS V14.01,2013-11-15 14:22:00,
2013-11-15 09:27:00,41.8,25.9,29.88,SSW,199,0.0,0.0,53,0.00,,CLR,0.00,VWS V14.01,2013-11-15 14:27:00,
2013-11-15 09:37:00,41.9,26.0,29.88,SSW,200,0.0,0.0,53,0.00,,CLR,0.00,VWS V14.01,2013-11-15 14:37:00,
2013-11-15 09:42:00,42.1,25.8,29.88,SSW,195,0.0,0.0,52,0.00,,CLR,0.00,VWS V14.01,2013-11-15 14:42:00,
2013-11-15 09:47:00,42.2,25.9,29.89,SSW,206,0.0,0.0,52,0.00,,CLR,0.00,VWS V14.01,2013-11-15 14:47:00,
2013-11-15 09:52:00,42.3,25.9,29.89,SSW,196,0.0,0.0,52,0.00,,CLR,0.00,VWS V14.01,2013-11-15 14:52:00,
2013-11-15 09:57:00,42.5,25.7,29.89,SSW,196,0.0,0.0,51,0.00,,CLR,0.00,VWS V14.01,2013-11-15 14:57:00,
2013-11-15 10:03:00,42.6,25.8,29.88,SSW,195,0.0,0.0,51,0.00,,CLR,0.00,VWS V14.01,2013-11-15 15:03:00,
2013-11-15 10:12:00,42.9,25.6,29.88,South,176,0.0,0.0,50,0.00,,CLR,0.00,VWS V14.01,2013-11-15 15:12:00,
2013-11-15 10:17:00,43.1,25.7,29.88,South,178,0.0,0.0,50,0.00,,CLR,0.00,VWS V14.01,2013-11-15 15:17:00,
2013-11-15 10:22:00,43.1,25.3,29.88,South,185,0.0,0.0,49,0.00,,CLR,0.00,VWS V14.01,2013-11-15 15:22:00,
2013-11-15 10:27:00,43.3,25.4,29.88,SSW,210,0.0,0.0,49,0.00,,CLR,0.00,VWS V14.01,2013-11-15 15:27:00,
2013-11-15 10:32:00,43.6,25.7,29.88,SSW,193,0.0,0.0,49,0.00,,CLR,0.00,VWS V14.01,2013-11-15 15:32:00,
2013-11-15 10:37:00,43.8,25.9,29.88,South,178,0.0,0.0,49,0.00,,CLR,0.00,VWS V14.01,2013-11-15 15:37:00,
2013-11-15 10:42:00,43.8,25.9,29.88,SW,223,0.0,0.0,49,0.00,,CLR,0.00,VWS V14.01,2013-11-15 15:42:00,
2013-11-15 10:47:00,43.9,26.0,29.89,SSW,208,0.0,0.0,49,0.00,,CLR,0.00,VWS V14.01,2013-11-15 15:47:00,
2013-11-15 10:52:00,44.2,25.8,29.89,SSW,200,0.0,0.0,48,0.00,,CLR,0.00,VWS V14.01,2013-11-15 15:52:00,
2013-11-15 11:02:00,44.3,25.9,29.89,SSW,206,0.0,0.0,48,0.00,,CLR,0.00,VWS V14.01,2013-11-15 16:02:00,
2013-11-15 11:07:00,44.6,26.1,29.89,SSW,213,0.0,0.0,48,0.00,,CLR,0.00,VWS V14.01,2013-11-15 16:07:00,
2013-11-15 11:12:00,44.9,26.4,29.89,SSW,210,0.0,0.0,48,0.00,,CLR,0.00,VWS V14.01,2013-11-15 16:12:00,
2013-11-15 11:17:00,45.2,26.7,29.89,SSW,206,0.0,0.0,48,0.00,,CLR,0.00,VWS V14.01,2013-11-15 16:17:00,
2013-11-15 11:22:00,45.4,26.4,29.89,SW,217,0.0,0.0,47,0.00,,CLR,0.00,VWS V14.01,2013-11-15 16:22:00,
2013-11-15 11:27:00,45.7,26.6,29.89,SW,217,0.0,0.0,47,0.00,,CLR,0.00,VWS V14.01,2013-11-15 16:27:00,
2013-11-15 11:32:00,46.1,27.0,29.89,South,169,0.0,0.0,47,0.00,,CLR,0.00,VWS V14.01,2013-11-15 16:32:00,
2013-11-15 11:37:00,46.5,26.9,29.89,SSW,206,0.0,0.0,46,0.00,,CLR,0.00,VWS V14.01,2013-11-15 16:37:00,
2013-11-15 11:47:00,47.3,27.0,29.88,SW,216,0.0,0.0,45,0.00,,CLR,0.00,VWS V14.01,2013-11-15 16:47:00,
2013-11-15 11:52:00,48.5,27.0,29.88,SSW,192,0.0,0.0,43,0.00,,CLR,0.00,VWS V14.01,2013-11-15 16:52:00,
2013-11-15 11:57:00,47.7,26.9,29.88,SSW,199,0.0,0.0,44,0.00,,CLR,0.00,VWS V14.01,2013-11-15 16:57:00,
2013-11-15 12:02:00,48.3,27.4,29.87,SSW,205,0.0,0.0,44,0.00,,CLR,0.00,VWS V14.01,2013-11-15 17:02:00,
2013-11-15 12:12:00,49.5,27.4,29.87,SE,141,0.0,0.0,42,0.00,,CLR,0.00,VWS V14.01,2013-11-15 17:12:00,
2013-11-15 12:17:00,49.9,26.6,29.86,South,169,0.0,0.0,40,0.00,,CLR,0.00,VWS V14.01,2013-11-15 17:17:00,
2013-11-15 12:22:00,49.9,26.6,29.86,SSW,205,0.0,0.0,40,0.00,,BKN110,0.00,VWS V14.01,2013-11-15 17:22:00,
2013-11-15 12:32:00,49.5,26.2,29.85,WSW,243,0.0,0.0,40,0.00,,BKN110,0.00,VWS V14.01,2013-11-15 17:32:00,
2013-11-15 12:37:00,49.4,26.7,29.85,SSE,168,0.0,0.0,41,0.00,,BKN110,0.00,VWS V14.01,2013-11-15 17:37:00,
2013-11-15 12:42:00,49.9,26.6,29.85,South,188,0.0,0.0,40,0.00,,BKN110,0.00,VWS V14.01,2013-11-15 17:42:00,
2013-11-15 12:47:00,50.1,26.1,29.84,SW,224,0.0,0.0,39,0.00,,BKN110,0.00,VWS V14.01,2013-11-15 17:47:00,
2013-11-15 12:52:00,50.4,27.6,29.84,SSW,200,0.0,0.0,41,0.00,,BKN110,0.00,VWS V14.01,2013-11-15 17:52:00,
2013-11-15 12:57:00,50.4,26.4,29.84,SW,220,0.0,0.0,39,0.00,,BKN110,0.00,VWS V14.01,2013-11-15 17:57:00,
2013-11-15 13:02:00,50.5,27.1,29.83,SSE,147,0.0,0.0,40,0.00,,BKN110,0.00,VWS V14.01,2013-11-15 18:02:00,
2013-11-15 13:07:00,51.0,26.3,29.83,SSW,212,0.0,0.0,38,0.00,,BKN110,0.00,VWS V14.01,2013-11-15 18:07:00,
2013-11-15 13:12:00,51.4,27.9,29.83,SSW,205,0.0,0.0,40,0.00,,BKN110,0.00,VWS V14.01,2013-11-15 18:12:00,
2013-11-15 13:17:00,51.7,26.9,29.83,SSE,167,0.0,0.0,38,0.00,,BKN110,0.00,VWS V14.01,2013-11-15 18:17:00,
2013-11-15 13:22:00,52.2,27.4,29.83,South,185,0.0,0.0,38,0.00,,BKN110,0.00,VWS V14.01,2013-11-15 18:22:00,
2013-11-15 13:32:00,52.3,27.5,29.82,South,188,0.0,0.0,38,0.00,,BKN110,0.00,VWS V14.01,2013-11-15 18:32:00,
2013-11-15 13:37:00,52.2,27.4,29.82,SSE,151,0.0,0.0,38,0.00,,BKN110,0.00,VWS V14.01,2013-11-15 18:37:00,
2013-11-15 13:42:00,52.5,27.0,29.82,SSW,206,0.0,0.0,37,0.00,,BKN110,0.00,VWS V14.01,2013-11-15 18:42:00,
2013-11-15 13:47:00,52.3,27.5,29.82,South,185,0.0,0.0,38,0.00,,BKN110,0.00,VWS V14.01,2013-11-15 18:47:00,
2013-11-15 13:52:00,51.6,26.8,29.82,SSW,198,0.0,0.0,38,0.00,,BKN110,0.00,VWS V14.01,2013-11-15 18:52:00,
2013-11-15 13:57:00,51.0,26.9,29.82,SSW,208,0.0,0.0,39,0.00,,BKN110,0.00,VWS V14.01,2013-11-15 18:57:00,
2013-11-15 14:07:00,50.8,27.4,29.83,South,176,0.0,0.0,40,0.00,,BKN110,0.00,VWS V14.01,2013-11-15 19:07:00,
2013-11-15 14:12:00,51.0,27.5,29.83,SSW,200,0.0,0.0,40,0.00,,BKN110,0.00,VWS V14.01,2013-11-15 19:12:00,
2013-11-15 14:17:00,51.0,27.5,29.82,SW,223,0.0,0.0,40,0.00,,BKN110,0.00,VWS V14.01,2013-11-15 19:17:00,
2013-11-15 14:22:00,50.8,28.0,29.82,SSE,168,0.0,0.0,41,0.00,,OVC055,0.00,VWS V14.01,2013-11-15 19:22:00,
2013-11-15 14:32:00,50.5,27.7,29.83,SSW,202,0.0,0.0,41,0.00,,OVC055,0.00,VWS V14.01,2013-11-15 19:32:00,
2013-11-15 14:37:00,50.2,27.4,29.83,South,178,0.0,0.0,41,0.00,,OVC055,0.00,VWS V14.01,2013-11-15 19:37:00,
2013-11-15 14:47:00,50.1,27.9,29.83,SSW,203,0.0,0.0,42,0.00,,OVC055,0.00,VWS V14.01,2013-11-15 19:47:00,
2013-11-15 14:52:00,50.1,27.9,29.83,South,184,0.0,0.0,42,0.00,,OVC055,0.00,VWS V14.01,2013-11-15 19:52:00,
2013-11-15 15:02:00,50.2,28.0,29.83,SSW,205,0.0,0.0,42,0.00,,OVC055,0.00,VWS V14.01,2013-11-15 20:02:00,
2013-11-15 15:12:00,50.4,28.2,29.83,SSW,203,0.0,0.0,42,0.00,,OVC055,0.00,VWS V14.01,2013-11-15 20:12:00,
2013-11-15 15:17:00,50.4,28.8,29.82,SSW,209,0.0,0.0,43,0.00,,OVC055,0.00,VWS V14.01,2013-11-15 20:17:00,
2013-11-15 15:22:00,50.4,28.8,29.82,SSW,213,0.0,0.0,43,0.00,,OVC055,0.00,VWS V14.01,2013-11-15 20:22:00,
2013-11-15 15:27:00,50.5,29.4,29.82,SSW,208,0.0,0.0,44,0.00,,OVC055,0.00,VWS V14.01,2013-11-15 20:27:00,
2013-11-15 15:32:00,50.5,28.9,29.82,SSW,203,0.0,0.0,43,0.00,,OVC055,0.00,VWS V14.01,2013-11-15 20:32:00,
2013-11-15 15:37:00,50.7,29.0,29.82,South,188,0.0,0.0,43,0.00,,OVC055,0.00,VWS V14.01,2013-11-15 20:37:00,
2013-11-15 15:42:00,50.7,29.0,29.82,SSW,195,0.0,0.0,43,0.00,,OVC055,0.00,VWS V14.01,2013-11-15 20:42:00,
2013-11-15 15:47:00,50.8,29.1,29.82,SSE,154,0.0,0.0,43,0.00,,OVC055,0.00,VWS V14.01,2013-11-15 20:47:00,
2013-11-15 15:52:00,51.1,29.4,29.82,SSW,205,0.0,0.0,43,0.00,,OVC055,0.00,VWS V14.01,2013-11-15 20:52:00,
2013-11-15 15:57:00,51.3,29.0,29.82,SSE,160,0.0,0.0,42,0.00,,OVC055,0.00,VWS V14.01,2013-11-15 20:57:00,
2013-11-15 16:07:00,51.7,29.4,29.82,South,175,0.0,0.0,42,0.00,,OVC055,0.00,VWS V14.01,2013-11-15 21:07:00,
2013-11-15 16:12:00,51.7,29.9,29.82,SSE,162,0.0,0.0,43,0.00,,OVC055,0.00,VWS V14.01,2013-11-15 21:12:00,
2013-11-15 16:17:00,51.6,29.3,29.82,SSW,203,0.0,0.0,42,0.00,,OVC055,0.00,VWS V14.01,2013-11-15 21:17:00,
2013-11-15 16:22:00,51.4,29.1,29.82,SW,219,0.0,0.0,42,0.00,,OVC055,0.00,VWS V14.01,2013-11-15 21:22:00,
2013-11-15 16:27:00,51.4,28.5,29.82,SSW,200,0.0,0.0,41,0.00,,OVC055,0.00,VWS V14.01,2013-11-15 21:27:00,
2013-11-15 16:33:00,51.4,28.5,29.83,South,186,0.0,0.0,41,0.00,,OVC055,0.00,VWS V14.01,2013-11-15 21:33:00,
2013-11-15 16:42:00,51.1,28.8,29.83,South,174,0.0,0.0,42,0.00,,OVC055,0.00,VWS V14.01,2013-11-15 21:42:00,
2013-11-15 16:52:00,50.8,28.5,29.83,South,169,0.0,0.0,42,0.00,,OVC055,0.00,VWS V14.01,2013-11-15 21:52:00,
2013-11-15 16:57:00,50.7,29.0,29.83,South,189,0.0,0.0,43,0.00,,OVC055,0.00,VWS V14.01,2013-11-15 21:57:00,
2013-11-15 17:02:00,50.5,28.9,29.82,SSW,198,0.0,0.0,43,0.00,,OVC055,0.00,VWS V14.01,2013-11-15 22:02:00,
2013-11-15 17:07:00,50.4,28.8,29.82,South,178,0.0,0.0,43,0.00,,OVC055,0.00,VWS V14.01,2013-11-15 22:07:00,
2013-11-15 17:17:00,49.6,28.6,29.82,SW,227,0.0,0.0,44,0.00,,OVC055,0.00,VWS V14.01,2013-11-15 22:17:00,
2013-11-15 17:22:00,49.5,28.5,29.82,South,188,0.0,0.0,44,0.00,,OVC055,0.00,VWS V14.01,2013-11-15 22:22:00,
2013-11-15 17:27:00,49.2,28.8,29.82,SSW,199,0.0,0.0,45,0.00,,OVC055,0.00,VWS V14.01,2013-11-15 22:27:00,
2013-11-15 17:37:00,48.8,28.4,29.82,South,189,0.0,0.0,45,0.00,,OVC055,0.00,VWS V14.01,2013-11-15 22:37:00,
2013-11-15 17:42:00,48.5,28.7,29.82,SSE,161,0.0,0.0,46,0.00,,OVC055,0.00,VWS V14.01,2013-11-15 22:42:00,
2013-11-15 17:47:00,48.3,28.5,29.82,SSE,160,0.0,0.0,46,0.00,,OVC055,0.00,VWS V14.01,2013-11-15 22:47:00,
2013-11-15 17:52:00,48.2,28.9,29.82,SSE,168,0.0,0.0,47,0.00,,OVC055,0.00,VWS V14.01,2013-11-15 22:52:00,
2013-11-15 17:57:00,48.0,28.8,29.82,SSE,167,0.0,0.0,47,0.00,,OVC055,0.00,VWS V14.01,2013-11-15 22:57:00,
2013-11-15 18:02:00,48.0,28.8,29.82,SSE,157,0.0,0.0,47,0.00,,OVC055,0.00,VWS V14.01,2013-11-15 23:02:00,
2013-11-15 18:12:00,48.0,28.8,29.82,South,175,0.0,0.0,47,0.00,,OVC055,0.00,VWS V14.01,2013-11-15 23:12:00,
2013-11-15 18:17:00,48.0,28.8,29.83,South,184,0.0,0.0,47,0.00,,OVC055,0.00,VWS V14.01,2013-11-15 23:17:00,
2013-11-15 18:22:00,48.0,29.3,29.83,SSE,168,0.0,0.0,48,0.00,,OVC055,0.00,VWS V14.01,2013-11-15 23:22:00,
2013-11-15 18:27:00,48.2,28.9,29.83,South,174,0.0,0.0,47,0.00,,OVC055,0.00,VWS V14.01,2013-11-15 23:27:00,
2013-11-15 18:32:00,48.2,28.9,29.84,South,179,0.0,0.0,47,0.00,,OVC055,0.00,VWS V14.01,2013-11-15 23:32:00,
2013-11-15 18:42:00,48.0,29.3,29.84,South,181,0.0,0.0,48,0.00,,OVC055,0.00,VWS V14.01,2013-11-15 23:42:00,
2013-11-15 18:47:00,48.0,29.3,29.84,SSE,155,0.0,0.0,48,0.00,,OVC055,0.00,VWS V14.01,2013-11-15 23:47:00,
2013-11-15 18:52:00,47.9,29.2,29.84,SSE,164,0.0,0.0,48,0.00,,OVC055,0.00,VWS V14.01,2013-11-15 23:52:00,
2013-11-15 18:57:00,47.7,29.5,29.84,South,174,0.0,0.0,49,0.00,,OVC055,0.00,VWS V14.01,2013-11-15 23:57:00,
2013-11-15 19:07:00,47.6,29.4,29.84,South,181,0.0,0.0,49,0.00,,OVC055,0.00,VWS V14.01,2013-11-16 00:07:00,
2013-11-15 19:12:00,47.4,29.7,29.84,South,181,0.0,0.0,50,0.00,,OVC055,0.00,VWS V14.01,2013-11-16 00:12:00,
2013-11-15 19:17:00,47.4,29.7,29.85,South,191,0.0,0.0,50,0.00,,OVC055,0.00,VWS V14.01,2013-11-16 00:17:00,
2013-11-15 19:22:00,47.4,29.2,29.85,SSW,200,0.0,0.0,49,0.00,,OVC055,0.00,VWS V14.01,2013-11-16 00:22:00,
2013-11-15 19:32:00,47.3,29.6,29.85,South,184,0.0,0.0,50,0.00,,OVC055,0.00,VWS V14.01,2013-11-16 00:32:00,
2013-11-15 19:42:00,47.1,29.9,29.85,South,172,0.0,0.0,51,0.00,,OVC055,0.00,VWS V14.01,2013-11-16 00:42:00,
2013-11-15 19:47:00,47.0,29.8,29.85,SSE,160,0.0,0.0,51,0.00,,OVC055,0.00,VWS V14.01,2013-11-16 00:47:00,
2013-11-15 19:52:00,47.0,29.8,29.85,South,175,0.0,0.0,51,0.00,,OVC055,0.00,VWS V14.01,2013-11-16 00:52:00,
2013-11-15 19:57:00,47.0,29.8,29.85,SSE,161,0.0,0.0,51,0.00,,OVC055,0.00,VWS V14.01,2013-11-16 00:57:00,
2013-11-15 20:02:00,46.8,30.1,29.85,South,176,0.0,0.0,52,0.00,,OVC055,0.00,VWS V14.01,2013-11-16 01:02:00,
2013-11-15 20:12:00,46.8,30.1,29.85,South,181,0.0,0.0,52,0.00,,OVC055,0.00,VWS V14.01,2013-11-16 01:12:00,
2013-11-15 20:17:00,47.0,30.3,29.85,South,191,0.0,0.0,52,0.00,,OVC055,0.00,VWS V14.01,2013-11-16 01:17:00,
2013-11-15 20:22:00,47.0,30.3,29.85,South,184,0.0,0.0,52,0.00,,OVC055,0.00,VWS V14.01,2013-11-16 01:22:00,
2013-11-15 20:27:00,46.8,30.1,29.85,South,184,0.0,0.0,52,0.00,,OVC055,0.00,VWS V14.01,2013-11-16 01:27:00,
2013-11-15 20:32:00,46.8,30.6,29.86,South,184,0.0,0.0,53,0.00,,OVC055,0.00,VWS V14.01,2013-11-16 01:32:00,
2013-11-15 20:42:00,46.7,30.5,29.86,South,169,0.0,0.0,53,0.00,,OVC055,0.00,VWS V14.01,2013-11-16 01:42:00,
2013-11-15 20:47:00,46.7,30.5,29.86,South,176,0.0,0.0,53,0.00,,OVC055,0.00,VWS V14.01,2013-11-16 01:47:00,
2013-11-15 20:52:00,46.7,30.5,29.86,South,178,0.0,0.0,53,0.00,,OVC055,0.00,VWS V14.01,2013-11-16 01:52:00,
2013-11-15 20:57:00,46.7,30.5,29.86,South,184,0.0,0.0,53,0.00,,OVC055,0.00,VWS V14.01,2013-11-16 01:57:00,
2013-11-15 21:02:00,46.7,31.0,29.85,South,171,0.0,0.0,54,0.00,,OVC055,0.00,VWS V14.01,2013-11-16 02:02:00,
2013-11-15 21:07:00,46.5,30.8,29.85,South,172,0.0,0.0,54,0.00,,OVC055,0.00,VWS V14.01,2013-11-16 02:07:00,
2013-11-15 21:17:00,46.7,31.0,29.85,South,178,0.0,0.0,54,0.00,,OVC055,0.00,VWS V14.01,2013-11-16 02:17:00,
2013-11-15 21:22:00,46.7,31.0,29.85,South,175,0.0,0.0,54,0.00,,OVC055,0.00,VWS V14.01,2013-11-16 02:22:00,
2013-11-15 21:27:00,46.7,31.0,29.85,SSE,165,0.0,0.0,54,0.00,,OVC055,0.00,VWS V14.01,2013-11-16 02:27:00,
2013-11-15 21:32:00,46.7,31.4,29.86,South,169,0.0,0.0,55,0.00,,OVC055,0.00,VWS V14.01,2013-11-16 02:32:00,
2013-11-15 21:42:00,46.7,31.4,29.86,SE,144,0.0,0.0,55,0.00,,OVC055,0.00,VWS V14.01,2013-11-16 02:42:00,
2013-11-15 21:47:00,46.7,31.4,29.86,South,172,0.0,0.0,55,0.00,,OVC055,0.00,VWS V14.01,2013-11-16 02:47:00,
2013-11-15 21:52:00,46.5,31.2,29.86,South,182,0.0,0.0,55,0.00,,OVC055,0.00,VWS V14.01,2013-11-16 02:52:00,
2013-11-15 21:57:00,46.5,31.2,29.86,South,184,0.0,0.0,55,0.00,,OVC055,0.00,VWS V14.01,2013-11-16 02:57:00,
2013-11-15 22:02:00,46.5,31.7,29.86,South,174,0.0,0.0,56,0.00,,OVC055,0.00,VWS V14.01,2013-11-16 03:02:00,
2013-11-15 22:12:00,46.5,31.7,29.86,SSE,164,0.0,0.0,56,0.00,,OVC055,0.00,VWS V14.01,2013-11-16 03:12:00,
2013-11-15 22:17:00,46.5,31.7,29.86,SSE,162,0.0,0.0,56,0.00,,OVC055,0.00,VWS V14.01,2013-11-16 03:17:00,
2013-11-15 22:22:00,46.2,31.4,29.86,SSE,165,0.0,0.0,56,0.00,,OVC055,0.00,VWS V14.01,2013-11-16 03:22:00,
2013-11-15 22:27:00,46.0,31.2,29.86,SSE,161,0.0,0.0,56,0.00,,OVC055,0.00,VWS V14.01,2013-11-16 03:27:00,
2013-11-15 22:32:00,45.7,31.4,29.86,SSE,158,0.0,0.0,57,0.00,,OVC055,0.00,VWS V14.01,2013-11-16 03:32:00,
2013-11-15 22:37:00,45.5,31.2,29.86,SSE,164,0.0,0.0,57,0.00,,OVC055,0.00,VWS V14.01,2013-11-16 03:37:00,
2013-11-15 22:42:00,45.2,30.9,29.86,SE,144,0.0,0.0,57,0.00,,OVC055,0.00,VWS V14.01,2013-11-16 03:42:00,
2013-11-15 22:47:00,44.9,31.0,29.86,SSE,148,0.0,0.0,58,0.00,,OVC055,0.00,VWS V14.01,2013-11-16 03:47:00,
2013-11-15 22:52:00,44.8,30.9,29.86,SSE,168,0.0,0.0,58,0.00,,OVC055,0.00,VWS V14.01,2013-11-16 03:52:00,
2013-11-15 22:57:00,44.5,30.7,29.86,South,178,0.0,0.0,58,0.00,,OVC055,0.00,VWS V14.01,2013-11-16 03:57:00,
2013-11-15 23:02:00,44.3,30.9,29.85,SSW,203,0.0,0.0,59,0.00,,OVC055,0.00,VWS V14.01,2013-11-16 04:02:00,
2013-11-15 23:13:00,44.2,30.8,29.85,South,169,0.0,0.0,59,0.00,,OVC055,0.00,VWS V14.01,2013-11-16 04:13:00,
2013-11-15 23:22:00,44.1,30.7,29.84,SSE,152,0.0,0.0,59,0.00,,CLR,0.00,VWS V14.01,2013-11-16 04:22:00,
2013-11-15 23:32:00,43.9,30.9,29.84,SSE,161,0.0,0.0,60,0.00,,CLR,0.00,VWS V14.01,2013-11-16 04:32:00,
2013-11-15 23:42:00,43.8,30.8,29.84,SSE,167,0.0,0.0,60,0.00,,CLR,0.00,VWS V14.01,2013-11-16 04:42:00,
2013-11-15 23:47:00,43.6,31.0,29.84,SSE,162,0.0,0.0,61,0.00,,CLR,0.00,VWS V14.01,2013-11-16 04:47:00,
2013-11-15 23:57:00,43.5,31.4,29.84,SSE,160,0.0,0.0,62,0.00,,CLR,0.00,VWS V14.01,2013-11-16 04:57:00,